User: anonymous   Login
Location: Unspecified
(0.0000°N, 0.0000°E)
Time: 22:50:38
(UTC+00:00)
Language:

SHAONIAN XING - Orbit

View from above orbital plane
View from above orbital plane
View from above satellite
View from above satellite

Ground track
Ground track

The orbit data is extracted from the following two-line orbital elements,

1 43199U 18015H   23083.51847104  .00116373  00000-0  16997-2 0  9992
2 43199  97.5387 237.2816 0007172 138.1533 295.4219 15.55217861286578
Epoch (UTC): 24 March 2023 12:26:35
Eccentricity: 0.0007172
inclination: 97.5387°
perigee height: 396 km
apogee height: 406 km
right ascension of ascending node: 237.2816°
argument of perigee: 138.1533°
revolutions per day: 15.55217861
mean anomaly at epoch: 295.4219°
orbit number at epoch: 28657

The dashed part of the orbit path shows where the satellite is in the earth's shadow,  

DLR